Location: Kershaw
(34.5481°N, 80.5823°W)
Time: 14:36:37
(UTC+00:00)

Transit 4A - Pass Details

Date: 03 October 2022
Orbit: 871 x 972 km, 66.8° (Epoch: 29 November)

Event Time Altitude Azimuth Distance (km) Brightness Sun altitude
Rises 14:17:38 0° 306° (NW) 3,464 10.4 33.8°
Reaches altitude 10° 14:22:32 10° 270° (W) 2,516 9.9 34.6°
Maximum altitude 14:23:42 11° 258° (WSW) 2,471 9.9 34.8°
Drops below altitude 10° 14:24:52 10° 247° (WSW) 2,514 10.0 35.0°
Sets 14:29:47 0° 210° (SSW) 3,455 11.0 35.8°
